FW3258 Weather Reports


time (UTC)temp
C
wind
direction
speed
KPH
gust
KPH
rain 1hr
cm
rain 24hr
cm
rain mn
cm
humidity
%
barometer
mb
20260504014431 11 258 14.5 17.7 0.00 0.00 0.00 48 1013.1
20260504013449 11 270 16.1 20.9 0.00 0.00 0.00 48 1013.2
20260504012530 11 258 9.7 9.7 0.00 0.00 0.00 48 1013.2
20260504011533 11 261 9.7 12.9 0.00 0.00 0.00 49 1013.1
20260504011447 11 258 11.3 12.9 0.00 0.00 0.00 48 1013.2
20260504010530 11 247 9.7 12.9 0.00 0.00 0.00 49 1013.2
20260504005533 11 247 8.0 16.1 0.00 0.00 0.00 48 1013.1
20260504004548 11 259 11.3 12.9 0.00 0.00 0.00 48 1013.1
20260504003531 11 243 16.1 19.3 0.00 0.00 0.00 48 1012.9
20260504002630 11 244 6.4 11.3 0.00 0.00 0.00 48 1013.0
20260504001630 11 270 11.3 16.1 0.00 0.00 0.00 48 1013.0
20260504000646 11 270 22.5 25.7 0.00 0.00 0.00 47 1012.9
20260503235647 11 247 6.4 8.0 0.00 0.00 0.00 47 1013.0
20260503234631 11 255 9.7 11.3 0.00 0.00 0.00 47 1013.0
20260503233632 11 265 11.3 16.1 0.00 0.00 0.00 47 1012.9
20260503231632 11 270 12.9 19.3 0.00 0.00 0.00 47 1013.1
20260503230630 11 270 16.1 17.7 0.00 0.00 0.00 46 1013.0
20260503225634 11 262 22.5 37.0 0.00 0.00 0.00 45 1013.2
20260503224732 11 262 25.7 27.4 0.00 0.00 0.00 45 1013.2
20260503222830 11 270 19.3 27.4 0.00 0.00 0.00 47 1013.6
20260503221831 11 247 30.6 30.6 0.00 0.00 0.00 45 1013.6
20260503220832 11 265 22.5 33.8 0.00 0.00 0.00 47 1013.2
20260503220729 11 258 29.0 32.2 0.00 0.00 0.00 46 1013.5
20260503215731 11 262 24.1 27.4 0.00 0.00 0.00 48 1013.1
20260503214731 11 247 27.4 40.2 0.00 0.00 0.00 49 1013.0
20260503213732 11 270 20.9 27.4 0.00 0.00 0.00 48 1013.1
20260503211731 11 270 20.9 27.4 0.00 0.00 0.00 48 1012.9
20260503211632 11 260 22.5 29.0 0.00 0.00 0.00 48 1012.9
20260503210730 11 270 19.3 30.6 0.00 0.00 0.00 48 1013.0
20260503203731 12 266 22.5 29.0 0.00 0.00 0.00 46 1013.1
20260503202731 12 261 22.5 30.6 0.00 0.00 0.00 45 1013.2
20260503201732 12 263 25.7 27.4 0.00 0.00 0.00 45 1013.3
20260503200731 12 270 27.4 27.4 0.00 0.00 0.00 44 1013.6
20260503195731 12 270 25.7 29.0 0.00 0.00 0.00 45 1013.5
20260503194830 12 225 25.7 25.7 0.00 0.00 0.00 44 1013.7
20260503193832 12 267 25.7 32.2 0.00 0.00 0.00 44 1013.8
20260503192830 12 256 17.7 24.1 0.00 0.00 0.00 44 1014.0
20260503191830 11 261 22.5 29.0 0.00 0.00 0.00 43 1014.0
20260503190830 11 277 16.1 17.7 0.00 0.00 0.00 42 1014.2
20260503185832 11 258 25.7 32.2 0.00 0.00 0.00 41 1014.2
20260503184831 11 283 33.8 43.5 0.00 0.00 0.00 42 1014.5
20260503183931 11 270 20.9 22.5 0.00 0.00 0.00 41 1014.5
20260503183030 11 277 29.0 35.4 0.00 0.00 0.00 41 1014.5
20260503182031 11 270 33.8 33.8 0.00 0.00 0.00 41 1014.7
20260503181032 11 270 33.8 33.8 0.00 0.00 0.00 41 1014.7
20260503175131 10 285 20.9 27.4 0.00 0.00 0.00 39 1015.0
20260503174229 10 270 19.3 22.5 0.00 0.00 0.00 39 1015.4
20260503172232 10 254 16.1 19.3 0.00 0.00 0.00 43 1015.8
20260503170230 8 270 19.3 24.1 0.00 0.00 0.00 48 1015.9
20260503150429 8 263 25.7 33.8 0.00 0.00 0.00 55 1016.6
20260503140231 6 258 24.1 25.7 0.00 0.00 0.00 67 1016.7
20260503131331 6 247 12.9 19.3 0.00 0.00 0.00 67 1016.9
20260503130331 6 270 16.1 22.5 0.00 0.00 0.00 66 1016.8
20260503110430 1 169 0.0 1.6 0.00 0.00 0.00 95 1016.1
20260503080732 0 247 3.2 3.2 0.00 0.00 0.00 94 1016.2
20260503072832 0 270 1.6 3.2 0.00 0.00 0.00 94 1016.0
20260503071929 0 270 3.2 6.4 0.00 0.00 0.00 94 1015.9
20260503070931 0 247 1.6 3.2 0.00 0.00 0.00 94 1016.1
20260503055032 0 247 0.0 1.6 0.00 0.00 0.00 94 1016.6
20260503054029 0 247 0.0 1.6 0.00 0.00 0.00 93 1016.5
20260503051030 0 180 0.0 0.0 0.00 0.00 0.00 92 1016.7
20260503050047 0 180 0.0 0.0 0.00 0.00 0.00 92 1016.9
20260503045130 0 180 0.0 0.0 0.00 0.00 0.00 91 1016.9
20260503045033 0 180 0.0 0.0 0.00 0.00 0.00 92 1016.9
20260503044030 0 180 0.0 0.0 0.00 0.00 0.00 91 1017.0
20260503043032 1 180 0.0 1.6 0.00 0.00 0.00 91 1017.1
20260503042030 1 180 0.0 0.0 0.00 0.00 0.00 90 1017.2
20260503041031 1 180 0.0 0.0 0.00 0.00 0.00 90 1017.2
20260503040031 1 180 3.2 4.8 0.00 0.00 0.00 90 1017.2
20260503035024 1 157 0.0 0.0 0.00 0.00 0.00 89 1017.3
20260503034124 1 157 0.0 1.6 0.00 0.00 0.00 87 1017.4
20260503032124 1 157 0.0 0.0 0.00 0.00 0.00 86 1017.5
20260503031123 1 157 0.0 0.0 0.00 0.00 0.00 85 1017.5
20260503025124 2 258 3.2 6.4 0.00 0.00 0.00 83 1017.7
20260503024125 2 247 6.4 8.0 0.00 0.00 0.00 83 1017.9
20260503023140 2 270 4.8 8.0 0.00 0.00 0.00 82 1017.9
20260503022222 2 255 3.2 3.2 0.00 0.00 0.00 82 1018.0
20260503021222 3 252 6.4 8.0 0.00 0.00 0.00 81 1018.0